Location: Unspecified
(0.0000°N, 0.0000°E)
Time: 08:20:55
(UTC+02:00)

Haruka - Visible Passes

Search period start: 01 July 2016 00:00
Search period end: 11 July 2016 00:00
Orbit: 536 x 21227 km, 31.3° (Epoch: 30 June)

Date Brightness Start Highest point End Pass type
(mag) Time Alt. Az. Time Alt. Az. Time Alt. Az.
02 Jul 5.9 00:02:47 10° NW 00:13:47 33° NW 00:13:47 33° NW visible
02 Jul 6.4 06:56:24 10° S 07:05:16 17° SE 07:34:31 10° ESE visible
03 Jul 6.9 01:17:52 10° WNW 01:18:15 11° WNW 01:18:15 11° WNW visible
04 Jul 6.6 16:28:17 10° W 20:54:41 36° N 21:09:21 10° ENE visible
05 Jul 5.8 21:13:42 10° NW 22:09:53 38° N 22:15:33 25° ENE visible
06 Jul 5.2 22:57:15 10° NW 23:20:03 49° N 23:20:03 49° N visible
07 Jul 6.5 06:04:28 10° SSE 06:06:25 10° SSE 06:08:47 10° SE visible
08 Jul 6.1 00:17:06 10° WNW 00:24:32 27° WNW 00:24:32 27° WNW visible
08 Jul 6.5 07:07:17 10° SSW 07:19:45 23° SE 09:57:01 10° ENE visible
10 Jul 6.2 17:14:28 10° W 21:10:50 40° N 21:21:52 11° ENE visible
